Change the Weather History Date:

Monday, March 14, 2011

  Actual Average Record
Temperature  
Mean Temperature 35 °F 38 °F  
Max Temperature 41 °F 47 °F 79 °F (1946)
Min Temperature 28 °F 29 °F 12 °F (1948)
Degree Days  
Heating Degree Days 30 27  
Month to date heating degree days 370 401  
Since 1 July heating degree days 4518 4463  
Cooling Degree Days 0 0  
Month to date cooling degree days 0 0  
Year to date cooling degree days 0 0  
Moisture  
Dew Point 28 °F    
Average Humidity 70    
Maximum Humidity 85    
Minimum Humidity 54    
Precipitation  
Precipitation T in 0.16 in 1.28 in (1958)
Month to date precipitation 1.09 2.07  
Year to date precipitation 9.64 9.22  
Snow  
Snow T in 0.20 in 5.90 in (1958)
Month to date snowfall T 3.3  
Since 1 July snowfall 49.5 31.0  
Snow Depth 0.00 in    
Sea Level Pressure  
Sea Level Pressure 30.31 in    
Wind  
Wind Speed 6 mph (NE)    
Max Wind Speed 13 mph    
Max Gust Speed 16 mph    
Visibility 10 miles    
Events Rain , Snow    
T = Trace of Precipitation, MM = Missing Value Source: NWS Daily Summary

Daily Weather History Graph

Daily Weather History Graph

Search for Another Location

Airport or City:

Trip Planner

Search our weather history database for the weather conditions in past years. The results will help you decide how hot, cold, wet, or windy it might be!

Date:

Astronomy

Mar. 14, 2011 Rise Set
Actual Time 6:59 AM EDT 6:50 PM EDT
Civil Twilight 6:32 AM EDT 7:18 PM EDT
Nautical Twilight 5:59 AM EDT 7:50 PM EDT
Astronomical Twilight 5:27 AM EDT 8:23 PM EDT
Moon 1:01 PM EDT (3/14) 3:24 AM EDT (3/14)
Length of Visible Light 12h 46m
Length of Day
11h 51m
Waxing Gibbous, 68% of the Moon is Illuminated
Mar 14
Waxing Gibbous
Mar 19
Full
Mar 26
Last Quarter
Apr 3
New
Apr 11
First Quarter

Hourly Weather History & Observations

Time (EDT) Temp. Windchill Dew Point Humidity Pressure Visibility Wind Dir Wind Speed Gust Speed Precip Events Conditions
12:51 AM 37.9 °F 32.7 °F 28.0 °F 68% 30.15 in 10.0 mi West 6.9 mph - N/A   Overcast
1:51 AM 37.9 °F 34.4 °F 27.0 °F 65% 30.16 in 10.0 mi WNW 4.6 mph - N/A   Mostly Cloudy
2:51 AM 37.0 °F 32.4 °F 27.0 °F 67% 30.17 in 10.0 mi WNW 5.8 mph - N/A   Mostly Cloudy
3:51 AM 39.0 °F 34.0 °F 28.0 °F 65% 30.17 in 10.0 mi WNW 6.9 mph - N/A   Mostly Cloudy
4:51 AM 39.0 °F 34.8 °F 28.9 °F 67% 30.19 in 10.0 mi NW 5.8 mph - N/A   Overcast
5:51 AM 37.9 °F 32.7 °F 30.0 °F 73% 30.20 in 10.0 mi NNW 6.9 mph - N/A   Overcast
6:51 AM 39.0 °F 32.8 °F 28.9 °F 67% 30.22 in 10.0 mi North 9.2 mph - N/A   Mostly Cloudy
7:51 AM 39.0 °F 34.8 °F 28.9 °F 67% 30.24 in 10.0 mi NNW 5.8 mph - N/A   Overcast
8:51 AM 39.0 °F 33.4 °F 28.9 °F 67% 30.25 in 10.0 mi North 8.1 mph - N/A   Overcast
9:51 AM 39.0 °F 32.3 °F 25.0 °F 57% 30.27 in 10.0 mi North 10.4 mph - N/A   Overcast
10:51 AM 39.0 °F 33.4 °F 25.0 °F 57% 30.30 in 10.0 mi NNW 8.1 mph - N/A   Overcast
11:51 AM 39.0 °F 33.4 °F 24.1 °F 55% 30.29 in 10.0 mi NNW 8.1 mph - 0.00 in   Unknown
12:51 PM 39.9 °F 35.8 °F 25.0 °F 55% 30.29 in 10.0 mi Variable 5.8 mph - 0.00 in   Overcast
1:51 PM 39.9 °F 34.5 °F 26.1 °F 58% 30.30 in 10.0 mi NE 8.1 mph - 0.00 in   Unknown
2:51 PM 39.0 °F 32.3 °F 28.0 °F 65% 30.30 in 10.0 mi ENE 10.4 mph - 0.00 in Rain Light Rain
3:51 PM 37.9 °F 31.5 °F 30.0 °F 73% 30.32 in 10.0 mi East 9.2 mph - 0.00 in Rain , Snow Light Rain
4:39 PM 37.4 °F 32.8 °F 30.2 °F 75% 30.33 in 10.0 mi East 5.8 mph - 0.00 in   Light Drizzle
4:51 PM 37.0 °F 31.6 °F 28.9 °F 73% 30.33 in 10.0 mi East 6.9 mph - 0.00 in   Light Drizzle
4:57 PM 37.4 °F 33.8 °F 28.4 °F 70% 30.33 in 10.0 mi East 4.6 mph - 0.00 in   Light Drizzle
5:51 PM 37.0 °F 34.5 °F 28.9 °F 73% 30.35 in 10.0 mi East 3.5 mph - 0.00 in   Overcast
6:40 PM 37.4 °F 34.9 °F 26.6 °F 65% 30.35 in 10.0 mi ENE 3.5 mph - N/A   Overcast
6:51 PM 37.0 °F 31.0 °F 28.0 °F 70% 30.36 in 10.0 mi East 8.1 mph - N/A   Overcast
7:02 PM 35.6 °F 29.2 °F 28.4 °F 75% 30.37 in 10.0 mi ENE 8.1 mph - N/A   Overcast
7:51 PM 36.0 °F 31.1 °F 28.9 °F 76% 30.39 in 10.0 mi East 5.8 mph - N/A   Overcast
8:15 PM 35.6 °F 30.7 °F 28.4 °F 75% 30.40 in 10.0 mi ENE 5.8 mph - 0.00 in Snow Light Snow
8:42 PM 35.6 °F 31.7 °F 28.4 °F 75% 30.41 in 10.0 mi East 4.6 mph - 0.00 in   Overcast
8:51 PM 35.1 °F 32.2 °F 28.9 °F 78% 30.42 in 10.0 mi ESE 3.5 mph - 0.00 in   Overcast
9:51 PM 34.0 °F 31.0 °F 28.0 °F 79% 30.42 in 10.0 mi ESE 3.5 mph - N/A   Partly Cloudy
10:51 PM 32.0 °F - 28.0 °F 85% 30.43 in 10.0 mi Calm Calm - N/A   Partly Cloudy
11:51 PM 30.0 °F - 27.0 °F 88% 30.45 in 10.0 mi Calm Calm - N/A   Partly Cloudy